Time,TemperatureF,DewpointF,PressureIn,WindDirection,WindDirectionDegrees,WindSpeedMPH,WindSpeedGustMPH,Humidity,HourlyPrecipIn,Conditions,Clouds,dailyrainin,SoftwareType,DateUTC
2013-01-04 00:01:00,9.5,7.0,30.29,SSW,207,4.0,6.0,91,0.00,,,0.00,weatherlink.com 1.10,2013-01-04 06:01:00,
2013-01-04 00:16:00,10.2,8.0,30.29,WSW,240,4.0,8.0,91,0.00,,,0.00,weatherlink.com 1.10,2013-01-04 06:16:00,
2013-01-04 00:31:00,10.4,8.0,30.29,SSW,199,3.0,8.0,90,0.00,,,0.00,weatherlink.com 1.10,2013-01-04 06:31:00,
2013-01-04 00:46:00,10.0,8.0,30.28,SW,229,3.0,6.0,90,0.00,,,0.00,weatherlink.com 1.10,2013-01-04 06:46:00,
2013-01-04 01:01:00,9.7,7.0,30.28,WSW,257,1.0,5.0,90,0.00,,,0.00,weatherlink.com 1.10,2013-01-04 07:01:00,
2013-01-04 01:16:00,9.8,8.0,30.27,SW,221,2.0,6.0,90,0.00,,,0.00,weatherlink.com 1.10,2013-01-04 07:16:00,
2013-01-04 01:31:00,10.4,8.0,30.27,SW,229,3.0,8.0,90,0.00,,,0.00,weatherlink.com 1.10,2013-01-04 07:31:00,
2013-01-04 01:46:00,10.5,8.0,30.27,SSW,200,3.0,6.0,90,0.00,,,0.00,weatherlink.com 1.10,2013-01-04 07:46:00,
2013-01-04 02:01:00,10.5,8.0,30.27,WSW,258,2.0,4.0,90,0.00,,,0.00,weatherlink.com 1.10,2013-01-04 08:01:00,
2013-01-04 02:16:00,10.8,9.0,30.27,WSW,247,1.0,4.0,90,0.00,,,0.00,weatherlink.com 1.10,2013-01-04 08:16:00,
2013-01-04 02:31:00,10.8,9.0,30.27,SW,225,3.0,5.0,90,0.00,,,0.00,weatherlink.com 1.10,2013-01-04 08:31:00,
2013-01-04 02:46:00,11.1,9.0,30.27,WSW,248,1.0,7.0,90,0.00,,,0.00,weatherlink.com 1.10,2013-01-04 08:46:00,
2013-01-04 03:01:00,11.0,9.0,30.26,SW,229,3.0,6.0,90,0.00,,,0.00,weatherlink.com 1.10,2013-01-04 09:01:00,
2013-01-04 03:16:00,10.8,8.0,30.27,West,259,2.0,3.0,89,0.00,,,0.00,weatherlink.com 1.10,2013-01-04 09:16:00,
2013-01-04 03:31:00,11.5,9.0,30.26,WSW,243,3.0,6.0,90,0.00,,,0.00,weatherlink.com 1.10,2013-01-04 09:31:00,
2013-01-04 03:46:00,11.4,9.0,30.25,SSW,205,2.0,5.0,89,0.00,,,0.00,weatherlink.com 1.10,2013-01-04 09:46:00,
2013-01-04 04:01:00,11.2,9.0,30.25,WSW,238,3.0,5.0,89,0.00,,,0.00,weatherlink.com 1.10,2013-01-04 10:01:00,
2013-01-04 04:16:00,10.1,7.0,30.23,SSW,207,2.0,6.0,88,0.00,,,0.00,weatherlink.com 1.10,2013-01-04 10:16:00,
2013-01-04 04:32:00,9.5,7.0,30.23,SW,234,2.0,7.0,89,0.00,,,0.00,weatherlink.com 1.10,2013-01-04 10:32:00,
2013-01-04 04:47:00,9.6,7.0,30.23,SW,214,4.0,8.0,90,0.00,,,0.00,weatherlink.com 1.10,2013-01-04 10:47:00,
2013-01-04 05:02:00,10.1,8.0,30.23,SW,215,3.0,8.0,90,0.00,,,0.00,weatherlink.com 1.10,2013-01-04 11:02:00,
2013-01-04 05:17:00,10.5,8.0,30.24,SW,235,1.0,5.0,89,0.00,,,0.00,weatherlink.com 1.10,2013-01-04 11:17:00,
2013-01-04 05:32:00,10.4,8.0,30.23,SW,221,3.0,3.0,90,0.00,,,0.00,weatherlink.com 1.10,2013-01-04 11:32:00,
2013-01-04 05:47:00,10.4,8.0,30.23,WSW,252,1.0,6.0,90,0.00,,,0.00,weatherlink.com 1.10,2013-01-04 11:47:00,
2013-01-04 06:02:00,10.5,8.0,30.23,SW,217,2.0,5.0,89,0.00,,,0.00,weatherlink.com 1.10,2013-01-04 12:02:00,
2013-01-04 06:17:00,11.2,9.0,30.24,SW,233,1.0,6.0,90,0.00,,,0.00,weatherlink.com 1.10,2013-01-04 12:17:00,
2013-01-04 06:32:00,11.2,9.0,30.24,SW,226,2.0,4.0,89,0.00,,,0.00,weatherlink.com 1.10,2013-01-04 12:32:00,
2013-01-04 06:47:00,10.7,8.0,30.23,SW,217,2.0,5.0,89,0.00,,,0.00,weatherlink.com 1.10,2013-01-04 12:47:00,
2013-01-04 07:02:00,9.8,7.0,30.23,SSW,202,1.0,3.0,89,0.00,,,0.00,weatherlink.com 1.10,2013-01-04 13:02:00,
2013-01-04 07:17:00,9.2,7.0,30.23,SSW,206,1.0,3.0,89,0.00,,,0.00,weatherlink.com 1.10,2013-01-04 13:17:00,
2013-01-04 07:33:00,9.4,7.0,30.23,SW,217,2.0,5.0,89,0.00,,,0.00,weatherlink.com 1.10,2013-01-04 13:33:00,
2013-01-04 07:47:00,9.7,7.0,30.23,SSE,160,1.0,5.0,89,0.00,,,0.00,weatherlink.com 1.10,2013-01-04 13:47:00,
2013-01-04 08:02:00,9.9,7.0,30.23,SSW,197,2.0,5.0,89,0.00,,,0.00,weatherlink.com 1.10,2013-01-04 14:02:00,
2013-01-04 08:17:00,10.5,8.0,30.22,SSW,211,4.0,6.0,89,0.00,,,0.00,weatherlink.com 1.10,2013-01-04 14:17:00,
2013-01-04 08:32:00,11.7,9.0,30.23,SSW,200,2.0,8.0,88,0.00,,,0.00,weatherlink.com 1.10,2013-01-04 14:32:00,
2013-01-04 08:47:00,12.7,10.0,30.22,SW,220,2.0,6.0,88,0.00,,,0.00,weatherlink.com 1.10,2013-01-04 14:47:00,
2013-01-04 09:02:00,13.5,10.0,30.23,SSW,207,3.0,7.0,87,0.00,,,0.00,weatherlink.com 1.10,2013-01-04 15:02:00,
2013-01-04 09:17:00,14.2,11.0,30.24,SSW,210,4.0,9.0,86,0.00,,,0.00,weatherlink.com 1.10,2013-01-04 15:17:00,
2013-01-04 09:32:00,14.6,11.0,30.24,SW,219,5.0,10.0,86,0.00,,,0.00,weatherlink.com 1.10,2013-01-04 15:32:00,
2013-01-04 09:47:00,15.1,11.0,30.25,SW,235,4.0,7.0,85,0.00,,,0.00,weatherlink.com 1.10,2013-01-04 15:47:00,
2013-01-04 10:02:00,16.3,13.0,30.25,SW,219,8.0,10.0,85,0.00,,,0.00,weatherlink.com 1.10,2013-01-04 16:02:00,
2013-01-04 10:17:00,17.6,13.0,30.26,SW,234,3.0,7.0,83,0.00,,,0.00,weatherlink.com 1.10,2013-01-04 16:17:00,
2013-01-04 10:32:00,19.0,14.0,30.27,SW,232,4.0,6.0,81,0.00,,,0.00,weatherlink.com 1.10,2013-01-04 16:32:00,
2013-01-04 10:47:00,19.4,15.0,30.27,WSW,253,2.0,10.0,81,0.00,,,0.00,weatherlink.com 1.10,2013-01-04 16:47:00,
2013-01-04 11:02:00,20.3,15.0,30.26,WSW,254,9.0,9.0,80,0.00,,,0.00,weatherlink.com 1.10,2013-01-04 17:02:00,
2013-01-04 11:17:00,21.0,15.0,30.26,WSW,240,8.0,11.0,79,0.00,,,0.00,weatherlink.com 1.10,2013-01-04 17:17:00,
2013-01-04 11:33:00,21.7,16.0,30.26,West,277,4.0,11.0,78,0.00,,,0.00,weatherlink.com 1.10,2013-01-04 17:33:00,
2013-01-04 11:48:00,22.6,17.0,30.25,SW,233,3.0,8.0,78,0.00,,,0.00,weatherlink.com 1.10,2013-01-04 17:48:00,
2013-01-04 12:03:00,23.0,17.0,30.25,WSW,250,3.0,8.0,78,0.00,,,0.00,weatherlink.com 1.10,2013-01-04 18:03:00,
2013-01-04 12:18:00,23.6,18.0,30.24,WSW,253,2.0,9.0,78,0.00,,,0.00,weatherlink.com 1.10,2013-01-04 18:18:00,
2013-01-04 12:33:00,24.4,18.0,30.23,West,266,3.0,9.0,77,0.00,,,0.00,weatherlink.com 1.10,2013-01-04 18:33:00,
2013-01-04 12:48:00,24.8,19.0,30.23,West,264,2.0,10.0,77,0.00,,,0.00,weatherlink.com 1.10,2013-01-04 18:48:00,
2013-01-04 13:03:00,25.3,18.0,30.23,SW,228,4.0,8.0,75,0.00,,,0.00,weatherlink.com 1.10,2013-01-04 19:03:00,
2013-01-04 13:19:00,25.9,19.0,30.23,WNW,282,4.0,7.0,75,0.00,,,0.00,weatherlink.com 1.10,2013-01-04 19:19:00,
2013-01-04 13:33:00,26.2,19.0,30.22,West,264,3.0,7.0,74,0.00,,,0.00,weatherlink.com 1.10,2013-01-04 19:33:00,
2013-01-04 13:48:00,26.5,19.0,30.22,WSW,246,4.0,9.0,73,0.00,,,0.00,weatherlink.com 1.10,2013-01-04 19:48:00,
2013-01-04 14:04:00,26.8,20.0,30.22,WNW,288,2.0,7.0,74,0.00,,,0.00,weatherlink.com 1.10,2013-01-04 20:04:00,
2013-01-04 14:19:00,27.0,19.0,30.22,West,264,3.0,5.0,73,0.00,,,0.00,weatherlink.com 1.10,2013-01-04 20:19:00,
2013-01-04 14:33:00,27.4,20.0,30.23,WSW,240,5.0,6.0,74,0.00,,,0.00,weatherlink.com 1.10,2013-01-04 20:33:00,
2013-01-04 14:48:00,27.4,20.0,30.22,WSW,248,3.0,6.0,73,0.00,,,0.00,weatherlink.com 1.10,2013-01-04 20:48:00,
2013-01-04 15:03:00,27.3,20.0,30.23,SW,236,3.0,9.0,75,0.00,,,0.00,weatherlink.com 1.10,2013-01-04 21:03:00,
2013-01-04 15:18:00,26.8,20.0,30.23,SW,219,3.0,9.0,76,0.00,,,0.00,weatherlink.com 1.10,2013-01-04 21:18:00,
2013-01-04 15:32:00,25.9,20.0,30.23,WSW,248,3.0,8.0,78,0.00,,,0.00,weatherlink.com 1.10,2013-01-04 21:32:00,
2013-01-04 15:47:00,25.1,19.0,30.23,WSW,243,4.0,6.0,78,0.00,,,0.00,weatherlink.com 1.10,2013-01-04 21:47:00,
2013-01-04 16:32:00,23.7,18.0,30.23,SW,233,1.0,4.0,80,0.00,,,0.00,weatherlink.com 1.10,2013-01-04 22:32:00,
2013-01-04 16:47:00,22.8,18.0,30.23,SW,235,1.0,6.0,82,0.00,,,0.00,weatherlink.com 1.10,2013-01-04 22:47:00,
2013-01-04 17:02:00,22.1,18.0,30.22,SSW,206,2.0,3.0,83,0.00,,,0.00,weatherlink.com 1.10,2013-01-04 23:02:00,
2013-01-04 17:17:00,21.3,17.0,30.22,SSW,206,0.0,3.0,84,0.00,,,0.00,weatherlink.com 1.10,2013-01-04 23:17:00,
2013-01-04 17:32:00,20.6,17.0,30.22,WSW,238,1.0,4.0,85,0.00,,,0.00,weatherlink.com 1.10,2013-01-04 23:32:00,
2013-01-04 17:47:00,20.1,16.0,30.23,SSW,210,1.0,4.0,85,0.00,,,0.00,weatherlink.com 1.10,2013-01-04 23:47:00,
2013-01-04 18:02:00,19.3,16.0,30.23,SW,221,2.0,4.0,85,0.00,,,0.00,weatherlink.com 1.10,2013-01-05 00:02:00,
2013-01-04 18:17:00,18.7,15.0,30.24,SW,214,0.0,4.0,86,0.00,,,0.00,weatherlink.com 1.10,2013-01-05 00:17:00,
2013-01-04 18:32:00,18.1,15.0,30.24,SW,227,1.0,4.0,86,0.00,,,0.00,weatherlink.com 1.10,2013-01-05 00:32:00,
2013-01-04 18:47:00,17.5,14.0,30.24,West,267,0.0,2.0,87,0.00,,,0.00,weatherlink.com 1.10,2013-01-05 00:47:00,
2013-01-04 19:02:00,17.8,14.0,30.25,WSW,241,0.0,2.0,86,0.00,,,0.00,weatherlink.com 1.10,2013-01-05 01:02:00,
2013-01-04 19:17:00,17.4,14.0,30.25,WSW,243,0.0,1.0,86,0.00,,,0.00,weatherlink.com 1.10,2013-01-05 01:17:00,
2013-01-04 19:32:00,16.9,14.0,30.24,WSW,240,0.0,0.0,87,0.00,,,0.00,weatherlink.com 1.10,2013-01-05 01:32:00,
2013-01-04 19:47:00,16.4,13.0,30.24,WSW,240,0.0,0.0,87,0.00,,,0.00,weatherlink.com 1.10,2013-01-05 01:47:00,
2013-01-04 20:02:00,15.2,12.0,30.23,SSE,155,0.0,0.0,88,0.00,,,0.00,weatherlink.com 1.10,2013-01-05 02:02:00,
2013-01-04 20:17:00,15.0,13.0,30.23,SW,223,0.0,2.0,90,0.00,,,0.00,weatherlink.com 1.10,2013-01-05 02:17:00,
2013-01-04 20:32:00,14.7,12.0,30.23,SSW,210,1.0,2.0,90,0.00,,,0.00,weatherlink.com 1.10,2013-01-05 02:32:00,
2013-01-04 20:47:00,14.9,13.0,30.22,SSW,209,0.0,4.0,90,0.00,,,0.00,weatherlink.com 1.10,2013-01-05 02:47:00,
2013-01-04 21:02:00,14.3,12.0,30.21,SSE,159,0.0,2.0,91,0.00,,,0.00,weatherlink.com 1.10,2013-01-05 03:02:00,
2013-01-04 21:17:00,14.4,12.0,30.20,SSW,211,0.0,4.0,91,0.00,,,0.00,weatherlink.com 1.10,2013-01-05 03:17:00,
2013-01-04 21:32:00,13.8,12.0,30.20,SSW,197,0.0,1.0,91,0.00,,,0.00,weatherlink.com 1.10,2013-01-05 03:32:00,
2013-01-04 21:48:00,13.6,12.0,30.20,SSW,202,0.0,2.0,92,0.00,,,0.00,weatherlink.com 1.10,2013-01-05 03:48:00,
2013-01-04 22:03:00,13.5,12.0,30.20,SW,221,2.0,3.0,92,0.00,,,0.00,weatherlink.com 1.10,2013-01-05 04:03:00,
2013-01-04 22:18:00,12.8,11.0,30.20,SSW,198,0.0,0.0,91,0.00,,,0.00,weatherlink.com 1.10,2013-01-05 04:18:00,
2013-01-04 22:33:00,12.2,10.0,30.21,SSW,194,0.0,1.0,92,0.00,,,0.00,weatherlink.com 1.10,2013-01-05 04:33:00,
2013-01-04 22:48:00,12.3,10.0,30.22,SSW,203,0.0,4.0,92,0.00,,,0.00,weatherlink.com 1.10,2013-01-05 04:48:00,
2013-01-04 23:03:00,11.5,9.0,30.21,SSE,164,2.0,3.0,91,0.00,,,0.00,weatherlink.com 1.10,2013-01-05 05:03:00,
2013-01-04 23:18:00,11.3,9.0,30.21,SSW,205,0.0,2.0,91,0.00,,,0.00,weatherlink.com 1.10,2013-01-05 05:18:00,
2013-01-04 23:33:00,11.0,9.0,30.21,SSE,148,0.0,1.0,91,0.00,,,0.00,weatherlink.com 1.10,2013-01-05 05:33:00,
2013-01-04 23:48:00,11.0,9.0,30.21,SSE,147,0.0,0.0,91,0.00,,,0.00,weatherlink.com 1.10,2013-01-05 05:48:00,